Zurück zum Katalog

DELTA 1 DEB

AktivLEO
NORAD 7044·DEBRIS·🇺🇸 United States

Gestartet Nov 6, 1973 von Vandenberg Space Force Base

Loading…

Nächste Überflüge (nächste 24 Stunden)

TLE

AktuellSource: Space-Track

Epoche: Sep 14, 2026, 15:02 UTC

1 07044U 73086AL  26257.62705212 -.00000021  00000-0  18635-3 0  9996
2 07044 102.4815 133.3020 0089504  87.8521 301.2915 12.44540057400396

Verfolge DELTA 1 DEB in Echtzeit mit AllMySat

Download on the App Store